TimeEST,TemperatureF,Dew PointF,Humidity,Sea Level PressureIn,VisibilityMPH,Wind Direction,Wind SpeedMPH,Gust SpeedMPH,PrecipitationIn,Events,Conditions,WindDirDegrees,DateUTC
12:15 AM,62.6,60.8,94,30.00,5.0,WSW,3.5,-,N/A,,Mostly Cloudy,250,2012-12-10 05:15:00
12:23 AM,62.6,60.8,94,30.00,1.0,Calm,Calm,-,N/A,,Mist,0,2012-12-10 05:23:00
12:41 AM,62.6,62.6,100,29.99,0.2,Calm,Calm,-,N/A,Fog,Fog,0,2012-12-10 05:41:00
12:53 AM,63.0,62.1,97,29.98,0.2,South,3.5,-,N/A,Fog,Fog,170,2012-12-10 05:53:00
1:21 AM,62.6,62.6,100,29.98,0.5,SSW,3.5,-,N/A,Fog,Fog,210,2012-12-10 06:21:00
1:53 AM,64.0,63.0,96,29.97,0.5,Calm,Calm,-,N/A,Fog,Fog,0,2012-12-10 06:53:00
2:22 AM,64.4,64.4,100,29.97,1.0,SSW,4.6,-,N/A,,Overcast,210,2012-12-10 07:22:00
2:53 AM,64.0,63.0,96,29.97,0.8,WSW,4.6,-,N/A,,Mist,250,2012-12-10 07:53:00
3:53 AM,64.0,63.0,96,29.96,0.5,SSW,4.6,-,N/A,Fog,Fog,210,2012-12-10 08:53:00
4:53 AM,64.0,63.0,96,29.94,0.5,SSW,5.8,-,N/A,Fog,Fog,210,2012-12-10 09:53:00
5:53 AM,64.0,63.0,96,29.95,0.5,SW,6.9,-,N/A,Fog,Fog,230,2012-12-10 10:53:00
6:05 AM,64.4,62.6,94,29.95,2.0,WSW,8.1,-,N/A,,Overcast,240,2012-12-10 11:05:00
6:39 AM,64.4,62.6,94,29.95,2.5,WSW,8.1,-,N/A,,Overcast,240,2012-12-10 11:39:00
6:53 AM,64.0,63.0,96,29.95,2.5,SW,5.8,-,N/A,,Overcast,230,2012-12-10 11:53:00
7:14 AM,64.4,62.6,94,29.95,1.5,SSW,6.9,-,N/A,,Overcast,200,2012-12-10 12:14:00
7:34 AM,64.4,62.6,94,29.95,1.0,SSW,6.9,-,N/A,,Overcast,210,2012-12-10 12:34:00
7:51 AM,64.4,62.6,94,29.94,1.5,SW,4.6,-,N/A,,Overcast,220,2012-12-10 12:51:00
7:53 AM,64.0,63.0,96,29.94,1.5,SW,5.8,-,N/A,,Overcast,220,2012-12-10 12:53:00
8:13 AM,64.4,62.6,94,29.95,3.0,SW,6.9,-,N/A,,Overcast,230,2012-12-10 13:13:00
8:53 AM,64.9,63.0,93,29.94,5.0,SSW,8.1,-,N/A,,Overcast,200,2012-12-10 13:53:00
9:53 AM,68.0,62.1,81,29.94,10.0,SW,10.4,-,N/A,,Overcast,220,2012-12-10 14:53:00
10:13 AM,69.8,62.6,78,29.94,10.0,South,9.2,-,N/A,,Mostly Cloudy,190,2012-12-10 15:13:00
10:36 AM,71.6,60.8,69,29.94,10.0,SSW,10.4,-,N/A,,Mostly Cloudy,210,2012-12-10 15:36:00
10:53 AM,71.1,60.1,68,29.93,10.0,SW,6.9,-,N/A,,Mostly Cloudy,220,2012-12-10 15:53:00
11:53 AM,73.9,55.9,53,29.91,10.0,SW,8.1,-,N/A,,Mostly Cloudy,220,2012-12-10 16:53:00
12:53 PM,77.0,55.0,47,29.88,10.0,SW,9.2,-,N/A,,Scattered Clouds,230,2012-12-10 17:53:00
1:53 PM,79.0,55.9,45,29.85,10.0,SSW,8.1,-,N/A,,Mostly Cloudy,210,2012-12-10 18:53:00
2:53 PM,78.1,54.0,43,29.83,10.0,SW,11.5,18.4,N/A,,Mostly Cloudy,220,2012-12-10 19:53:00
3:53 PM,78.1,53.1,42,29.81,10.0,SSW,8.1,-,N/A,,Scattered Clouds,200,2012-12-10 20:53:00
4:53 PM,75.0,53.1,46,29.81,10.0,SSW,9.2,-,N/A,,Mostly Cloudy,210,2012-12-10 21:53:00
5:53 PM,70.0,57.0,63,29.81,10.0,SSE,9.2,-,N/A,,Mostly Cloudy,160,2012-12-10 22:53:00
6:53 PM,66.9,59.0,76,29.81,10.0,South,8.1,-,N/A,,Partly Cloudy,170,2012-12-10 23:53:00
7:53 PM,66.0,61.0,84,29.82,10.0,South,9.2,-,N/A,,Partly Cloudy,180,2012-12-11 00:53:00
8:53 PM,64.9,62.1,90,29.82,10.0,South,5.8,-,N/A,,Mostly Cloudy,180,2012-12-11 01:53:00
9:53 PM,64.9,62.1,90,29.81,10.0,South,9.2,-,N/A,,Partly Cloudy,180,2012-12-11 02:53:00
10:53 PM,64.9,63.0,93,29.82,10.0,SSW,6.9,-,N/A,,Scattered Clouds,200,2012-12-11 03:53:00
11:53 PM,66.0,63.0,90,29.82,10.0,SSW,8.1,-,N/A,,Scattered Clouds,200,2012-12-11 04:53:00